GFSFLT1_850_temp_054.txt.gz
Temp
10 10 9 9 9 9 9 10 10 10 10 9 9 9 10 11 11 12 12 12 12 12 12 11 12 11 11 11 11 11 11 10
9 9 9 8 8 9 9 9 9 9 9 9 9 9 10 11 12 12 12 12 12 12 11 11 11 11 12 11 11 11 11 10
10 10 10 8 8 8 8 9 9 10 9 9 9 9 10 10 10 11 11 11 11 11 11 11 11 12 11 11 11 11 11 10
11 10 11 11 9 7 7 8 8 9 9 8 9 9 10 9 9 10 11 11 10 11 10 11 10 11 11 11 11 11 11 10
13 12 12 12 11 9 7 8 8 9 9 9 9 8 10 9 9 9 10 11 10 11 11 11 11 11 11 11 11 11 11 10
15 15 14 13 12 11 9 8 8 9 9 9 9 8 9 10 10 9 10 10 10 11 11 11 11 11 12 11 11 11 10 10
15 15 14 14 12 12 11 9 8 8 8 8 9 9 10 10 10 10 11 11 11 11 11 11 11 12 12 11 11 11 11 10
16 15 15 14 14 13 11 10 9 9 8 8 8 9 9 10 10 10 11 11 11 11 11 12 12 12 12 11 11 10 10 10
17 17 16 15 15 15 14 12 11 11 9 9 9 9 9 9 10 10 10 10 11 11 11 10 11 11 11 11 11 10 10 10
19 18 17 17 16 16 16 15 13 12 11 10 10 9 9 9 9 9 10 10 10 10 11 12 12 12 11 10 10 10 10 10
18 18 18 18 17 16 16 15 15 14 14 13 12 11 10 10 9 10 10 11 12 12 12 12 11 11 11 10 10 11 11 10
19 20 19 17 17 17 17 16 16 15 15 14 14 14 13 12 11 11 11 11 11 11 12 11 11 11 10 11 11 11 11 10
20 20 18 18 17 16 17 16 16 17 16 15 14 13 13 13 12 12 12 12 12 12 12 11 10 10 10 11 11 11 10 10
21 19 19 19 19 18 16 16 17 16 15 15 14 14 13 13 13 13 12 12 12 12 11 11 11 11 11 11 10 11 9 9
21 20 21 21 20 19 18 17 16 15 15 14 14 14 14 14 14 13 12 12 12 12 12 11 12 11 11 11 10 10 9 9
21 21 21 21 20 20 20 19 18 17 16 15 16 15 14 13 13 13 12 12 12 11 11 11 11 11 11 11 11 10 10 9
21 21 20 20 21 21 21 20 20 18 17 18 17 15 14 12 12 12 11 11 11 11 10 10 10 10 12 10 10 9 9 8
21 21 21 21 21 22 21 21 20 19 19 19 18 16 14 13 12 11 11 10 9 9 9 10 10 9 9 9 9 9 9 7
21 21 21 21 21 21 21 21 20 19 18 18 18 17 15 13 12 10 10 10 10 10 10 9 9 10 9 8 8 8 7 6

GFSFLT1_850_temp_060.txt.gz
Temp
13 10 9 9 9 10 10 10 10 10 9 9 9 9 8 9 9 10 10 11 11 11 11 12 11 10 10 11 11 11 10 11
13 11 10 9 10 10 10 10 10 10 9 8 8 9 9 9 10 9 10 10 10 10 10 12 11 10 10 12 11 11 11 10
13 11 10 9 9 9 9 10 10 9 10 9 9 9 9 9 9 9 9 9 10 11 11 12 11 10 11 11 11 10 10 11
14 12 11 10 9 9 9 9 9 10 10 9 8 8 8 8 9 9 10 10 11 11 11 11 11 11 11 12 11 10 9 9
15 13 12 10 10 8 8 8 9 9 10 9 9 9 9 9 9 9 10 10 10 10 11 11 11 11 11 11 11 11 10 9
15 14 13 12 10 9 8 8 9 9 9 9 9 9 9 8 9 9 8 10 11 11 11 10 11 11 10 10 10 10 11 10
16 14 12 12 11 9 8 8 8 9 9 9 9 9 9 8 9 9 9 10 10 10 10 10 11 11 11 11 11 10 10 10
16 14 13 12 11 11 9 8 8 9 9 9 9 9 9 9 10 10 10 10 10 10 10 10 10 10 11 10 9 9 10 10
17 16 13 13 12 11 12 11 8 8 8 9 9 9 8 10 10 10 10 10 10 11 11 10 11 11 11 10 9 9 9 10
18 16 14 13 12 13 14 12 10 8 9 9 9 9 8 8 10 10 10 10 10 11 11 10 10 11 10 10 10 9 8 9
18 17 15 14 12 13 15 12 10 10 9 9 9 9 9 9 9 9 9 10 10 11 10 10 10 11 11 10 10 9 9 9
18 17 16 14 13 12 13 13 11 10 10 9 9 9 9 9 9 9 9 9 9 9 9 9 9 9 9 9 9 9 9 9
19 17 16 15 14 13 12 12 11 11 10 10 9 9 9 9 9 9 9 9 10 10 9 9 9 9 9 9 9 9 9 9
19 18 17 16 15 14 13 12 13 12 11 11 10 11 10 11 12 11 9 8 9 8 8 9 10 11 10 10 9 9 9 9
20 19 18 16 16 14 13 13 12 11 11 11 12 14 15 14 13 11 12 10 8 8 8 9 10 9 10 11 11 11 11 12
20 19 19 18 16 15 14 14 12 12 11 11 14 15 14 12 12 12 12 11 12 13 12 11 11 9 9 9 9 11 11 11
20 20 20 19 18 17 16 18 17 14 14 17 12 12 13 14 12 12 12 12 11 10 11 10 9 9 12 13 12 11 10 11
16 17 18 18 17 17 16 16 14 16 17 16 14 12 12 11 10 9 11 11 10 11 10 10 9 8 8 9 10 9 9 10
14 15 17 16 17 17 16 16 15 17 18 15 13 13 13 11 10 11 10 9 9 9 9 8 8 8 8 8 8 8 8 9

GFSFLT1_850_temp_063.txt.gz
Temp
17 15 14 13 11 10 11 11 11 10 10 9 9 9 9 8 9 8 9 9 9 10 11 10 10 11 11 11 12 12 12 12
18 15 14 12 12 10 10 11 10 10 10 9 9 9 8 8 9 9 9 9 9 10 11 11 11 11 11 11 11 11 11 11
18 15 14 13 12 10 10 11 10 10 10 10 9 8 9 8 9 9 9 10 10 11 10 11 10 11 11 11 11 10 11 11
18 16 14 13 13 10 10 10 10 10 10 9 8 9 8 8 8 10 10 9 10 11 10 10 11 10 11 10 10 11 11 10
20 17 15 14 13 11 10 9 10 10 9 9 9 9 9 9 9 8 10 10 10 10 12 11 10 10 10 10 10 11 11 10
21 18 16 15 13 11 10 10 9 10 9 9 9 9 8 8 8 8 8 9 9 9 10 10 10 10 10 10 10 10 10 11
21 19 17 16 14 12 11 9 9 9 9 9 9 9 8 8 8 8 9 8 9 9 9 10 10 11 10 11 10 11 11 11
21 19 17 16 15 13 11 10 9 9 9 9 9 9 9 8 9 9 9 9 9 9 9 10 11 10 10 9 11 11 11 11
21 20 18 17 15 13 12 11 10 9 9 9 9 9 9 9 8 9 10 10 10 10 10 10 10 10 10 9 10 10 11 11
21 20 18 17 16 14 13 12 11 9 9 9 9 9 9 9 9 9 10 10 9 9 10 10 10 10 11 10 10 11 11 11
22 21 19 17 16 15 13 13 12 11 10 9 9 9 9 9 9 9 9 10 9 9 9 11 11 11 11 10 10 11 11 11
22 21 20 18 17 16 14 13 13 13 11 10 9 9 9 9 9 9 9 9 9 9 10 11 11 11 11 11 10 10 10 10
22 21 20 18 17 16 15 13 13 13 12 11 10 9 9 10 10 10 10 9 9 9 9 10 11 11 11 11 11 10 9 9
22 21 20 19 18 17 16 14 14 14 13 12 11 11 10 10 10 10 10 10 10 9 10 10 10 10 10 9 9 10 9 10
22 21 21 20 19 18 17 16 14 14 14 13 12 11 11 11 11 10 10 10 10 10 10 10 10 10 10 9 9 9 9 10
21 21 22 21 20 18 17 16 15 14 14 14 13 12 11 11 11 10 10 10 10 10 10 10 10 10 10 9 9 9 9 9
17 18 19 20 20 20 19 17 16 15 14 14 13 13 12 11 11 10 10 10 10 10 10 10 10 10 11 11 10 9 9 9
15 16 16 16 17 18 19 19 17 16 15 14 14 13 12 12 11 11 10 10 10 10 10 9 10 10 11 10 9 9 8 9
14 14 14 14 14 15 16 17 18 17 16 14 14 13 13 12 11 11 11 10 10 10 9 9 9 9 9 9 9 9 8 8

GFSFLT1_850_temp_069.txt.gz
Temp
19 18 18 16 14 12 12 11 11 10 10 10 10 10 10 10 10 10 10 11 11 12 12 12 12 12 12 11 11 11 11 11
19 18 17 16 14 12 11 10 10 10 9 10 10 10 10 10 10 10 10 10 10 11 11 11 12 12 12 11 12 12 11 11
19 18 17 17 15 13 11 10 10 10 10 10 11 11 9 9 9 10 10 10 10 10 11 11 11 11 11 11 12 12 12 12
18 18 17 16 15 13 12 10 10 9 10 9 9 9 9 9 9 9 9 9 10 10 11 10 10 10 10 10 12 12 12 12
19 18 17 17 15 13 12 10 9 10 10 10 9 9 9 9 9 9 9 9 9 10 10 11 10 10 10 11 12 12 12 12
20 19 19 17 16 14 13 12 9 10 10 10 10 9 9 9 9 9 9 9 10 10 10 10 11 11 11 11 11 12 12 12
20 20 18 17 16 14 13 12 11 9 9 9 10 10 9 9 9 9 9 10 10 9 10 11 11 11 11 12 11 11 11 12
18 18 17 16 16 15 13 12 11 9 9 9 9 10 10 10 10 10 9 9 9 10 10 10 11 11 11 11 11 11 11 11
20 19 18 17 16 16 15 13 12 11 9 9 9 9 10 10 10 10 10 10 10 11 11 11 11 11 10 10 11 11 11 11
21 20 19 18 17 16 15 14 12 11 10 9 9 9 9 9 10 10 10 10 10 10 10 10 10 11 10 10 10 10 10 10
20 20 19 18 18 17 16 15 14 12 11 9 9 9 9 9 9 10 10 10 10 10 10 10 10 10 10 10 10 10 10 10
22 20 19 19 18 17 16 15 14 12 11 9 9 9 9 9 9 9 10 10 10 10 10 10 10 10 10 11 10 10 10 10
20 21 19 19 18 17 17 16 14 13 12 11 10 9 9 9 8 8 9 9 9 10 10 10 10 10 10 11 10 10 10 10
16 17 16 18 18 17 17 16 15 14 13 12 12 12 9 9 9 9 9 9 9 9 8 9 9 10 10 10 10 10 11 11
14 14 14 15 14 15 16 16 16 16 15 14 13 13 12 12 9 9 9 9 9 9 9 9 9 9 9 10 10 10 10 10
13 12 13 13 13 14 14 13 13 15 15 15 15 14 13 13 12 11 9 9 9 9 9 10 9 9 9 8 9 9 9 9
11 12 12 12 13 13 14 14 13 12 13 14 15 14 14 13 12 13 12 11 9 9 9 9 9 10 10 9 8 9 9 8
10 10 10 11 11 12 13 13 13 14 13 12 12 13 14 14 13 12 12 12 11 11 10 9 9 9 10 9 9 9 9 9
9 9 10 10 11 12 12 13 12 12 12 13 12 12 12 12 13 14 13 12 11 11 11 10 10 10 10 10 10 10 9 9